TimeCDT,TemperatureF,Dew PointF,Humidity,Sea Level PressureIn,VisibilityMPH,Wind Direction,Wind SpeedMPH,Gust SpeedMPH,PrecipitationIn,Events,Conditions,WindDirDegrees,DateUTC
12:15 AM,69.8,67.1,91,30.10,5.0,Calm,Calm,-,N/A,,Clear,0,2013-08-21 05:15:00
12:35 AM,68.9,66.6,92,30.10,5.0,Calm,Calm,-,N/A,,Clear,0,2013-08-21 05:35:00
12:55 AM,68.4,66.2,93,30.10,7.0,Calm,Calm,-,N/A,,Clear,0,2013-08-21 05:55:00
1:15 AM,68.5,66.4,93,30.09,5.0,Calm,Calm,-,N/A,,Clear,0,2013-08-21 06:15:00
1:35 AM,69.3,67.3,93,30.09,7.0,Calm,Calm,-,N/A,,Clear,0,2013-08-21 06:35:00
1:55 AM,69.3,66.6,91,30.09,7.0,Calm,Calm,-,N/A,,Clear,0,2013-08-21 06:55:00
2:15 AM,68.0,65.7,92,30.09,5.0,Calm,Calm,-,N/A,,Clear,0,2013-08-21 07:15:00
2:35 AM,68.0,66.0,93,30.09,5.0,Calm,Calm,-,N/A,,Clear,0,2013-08-21 07:35:00
2:55 AM,67.3,65.1,93,30.09,5.0,Calm,Calm,-,N/A,,Clear,0,2013-08-21 07:55:00
3:15 AM,67.3,65.1,93,30.09,5.0,Calm,Calm,-,N/A,,Clear,0,2013-08-21 08:15:00
3:35 AM,66.7,64.6,93,30.09,7.0,Calm,Calm,-,N/A,,Clear,0,2013-08-21 08:35:00
3:55 AM,67.3,65.1,93,30.09,4.0,Calm,Calm,-,N/A,,Clear,0,2013-08-21 08:55:00
4:15 AM,66.2,64.0,93,30.08,7.0,Calm,Calm,-,N/A,,Clear,0,2013-08-21 09:15:00
4:35 AM,66.2,63.9,92,30.08,5.0,Calm,Calm,-,N/A,,Clear,0,2013-08-21 09:35:00
4:55 AM,65.5,63.3,93,30.09,7.0,Calm,Calm,-,N/A,,Clear,0,2013-08-21 09:55:00
5:15 AM,65.5,63.5,93,30.10,5.0,Calm,Calm,-,N/A,,Clear,0,2013-08-21 10:15:00
5:35 AM,65.3,63.5,94,30.10,2.0,Calm,Calm,-,N/A,,Clear,0,2013-08-21 10:35:00
5:55 AM,64.9,63.0,93,30.11,4.0,Calm,Calm,-,N/A,,Clear,0,2013-08-21 10:55:00
6:15 AM,64.9,63.0,93,30.11,7.0,Calm,Calm,-,N/A,,Clear,0,2013-08-21 11:15:00
6:35 AM,65.3,63.1,93,30.12,0.5,Calm,Calm,-,N/A,Fog,Fog,0,2013-08-21 11:35:00
6:55 AM,66.4,64.4,93,30.13,4.0,Calm,Calm,-,N/A,,Clear,0,2013-08-21 11:55:00
7:15 AM,68.9,66.7,93,30.13,3.0,ESE,3.5,-,N/A,,Clear,120,2013-08-21 12:15:00
7:35 AM,71.1,68.7,92,30.14,5.0,Calm,Calm,-,N/A,,Clear,0,2013-08-21 12:35:00
7:55 AM,73.4,70.3,90,30.13,7.0,Calm,Calm,-,N/A,,Clear,0,2013-08-21 12:55:00
8:15 AM,75.7,71.2,86,30.14,10.0,South,3.5,-,N/A,,Clear,180,2013-08-21 13:15:00
8:35 AM,77.5,70.3,78,30.14,10.0,Calm,Calm,-,N/A,,Clear,0,2013-08-21 13:35:00
8:55 AM,78.8,70.2,75,30.14,10.0,Calm,Calm,-,N/A,,Clear,0,2013-08-21 13:55:00
9:15 AM,80.6,70.5,71,30.14,10.0,WSW,3.5,-,N/A,,Clear,240,2013-08-21 14:15:00
9:35 AM,81.9,70.0,67,30.15,10.0,Calm,Calm,-,N/A,,Clear,0,2013-08-21 14:35:00
9:55 AM,83.3,70.0,64,30.16,10.0,West,3.5,-,N/A,,Clear,260,2013-08-21 14:55:00
10:15 AM,84.4,69.8,61,30.16,10.0,WSW,3.5,-,N/A,,Clear,240,2013-08-21 15:15:00
10:35 AM,84.7,69.4,60,30.16,10.0,SSW,5.8,-,N/A,,Clear,210,2013-08-21 15:35:00
10:55 AM,85.5,69.3,58,30.15,10.0,SW,6.9,-,N/A,,Clear,230,2013-08-21 15:55:00
11:15 AM,86.4,68.9,56,30.15,10.0,SW,4.6,-,N/A,,Clear,230,2013-08-21 16:15:00
11:35 AM,86.7,68.7,55,30.14,10.0,WSW,6.9,-,N/A,,Clear,240,2013-08-21 16:35:00
11:55 AM,87.3,68.5,54,30.14,10.0,SSW,4.6,-,N/A,,Clear,210,2013-08-21 16:55:00
12:15 PM,87.6,68.7,53,30.14,10.0,WSW,5.8,-,N/A,,Clear,250,2013-08-21 17:15:00
12:35 PM,88.5,68.0,50,30.14,10.0,SW,6.9,-,N/A,,Clear,230,2013-08-21 17:35:00
12:55 PM,88.7,66.9,48,30.13,10.0,WSW,8.1,-,N/A,,Clear,240,2013-08-21 17:55:00
1:15 PM,88.2,66.7,49,30.13,10.0,South,6.9,-,N/A,,Clear,190,2013-08-21 18:15:00
1:35 PM,89.2,65.3,45,30.12,10.0,SW,5.8,-,N/A,,Clear,230,2013-08-21 18:35:00
1:55 PM,90.7,67.6,47,30.12,10.0,SSW,6.9,-,N/A,,Clear,210,2013-08-21 18:55:00
2:15 PM,90.3,67.3,47,30.11,10.0,South,4.6,-,N/A,,Clear,190,2013-08-21 19:15:00
2:35 PM,90.1,66.2,45,30.10,10.0,South,4.6,-,N/A,,Clear,180,2013-08-21 19:35:00
2:55 PM,90.7,67.1,46,30.10,10.0,WSW,4.6,-,N/A,,Clear,240,2013-08-21 19:55:00
3:15 PM,90.3,66.4,45,30.09,10.0,South,4.6,-,N/A,,Clear,190,2013-08-21 20:15:00
3:35 PM,90.0,67.1,47,30.09,10.0,South,4.6,-,N/A,,Clear,170,2013-08-21 20:35:00
3:55 PM,90.5,66.2,45,30.08,10.0,South,4.6,-,N/A,,Clear,170,2013-08-21 20:55:00
4:15 PM,91.0,65.8,43,30.08,10.0,South,4.6,-,N/A,,Clear,170,2013-08-21 21:15:00
4:35 PM,90.7,65.7,43,30.08,10.0,SSW,5.8,-,N/A,,Clear,210,2013-08-21 21:35:00
4:55 PM,90.7,66.4,45,30.08,10.0,SSW,4.6,-,N/A,,Clear,210,2013-08-21 21:55:00
5:15 PM,90.1,66.2,45,30.08,10.0,South,4.6,-,N/A,,Clear,170,2013-08-21 22:15:00
5:35 PM,89.6,65.1,44,30.07,10.0,WSW,5.8,-,N/A,,Clear,240,2013-08-21 22:35:00
5:55 PM,89.1,66.0,46,30.07,10.0,WSW,3.5,-,N/A,,Clear,240,2013-08-21 22:55:00
6:15 PM,88.5,67.1,49,30.07,10.0,WSW,3.5,-,N/A,,Clear,240,2013-08-21 23:15:00
6:35 PM,87.1,67.8,53,30.06,10.0,SW,3.5,-,N/A,,Clear,220,2013-08-21 23:35:00
6:55 PM,85.1,70.0,60,30.06,10.0,Calm,Calm,-,N/A,,Clear,0,2013-08-21 23:55:00
7:15 PM,82.6,72.0,70,30.06,10.0,Calm,Calm,-,N/A,,Clear,0,2013-08-22 00:15:00
7:35 PM,80.1,72.3,77,30.06,10.0,Calm,Calm,-,N/A,,Clear,0,2013-08-22 00:35:00
7:55 PM,78.3,71.6,80,30.06,10.0,Calm,Calm,-,N/A,,Clear,0,2013-08-22 00:55:00
8:15 PM,75.9,71.8,87,30.06,10.0,Calm,Calm,-,N/A,,Clear,0,2013-08-22 01:15:00
8:35 PM,75.7,71.1,85,30.07,10.0,SSE,4.6,-,N/A,,Clear,150,2013-08-22 01:35:00
8:55 PM,76.1,70.7,83,30.07,10.0,SSE,4.6,-,N/A,,Clear,160,2013-08-22 01:55:00
9:15 PM,75.0,70.2,85,30.08,10.0,Calm,Calm,-,N/A,,Clear,0,2013-08-22 02:15:00
9:35 PM,73.4,70.2,90,30.09,10.0,Calm,Calm,-,N/A,,Clear,0,2013-08-22 02:35:00
9:55 PM,73.2,70.0,90,30.09,10.0,Calm,Calm,-,N/A,,Clear,0,2013-08-22 02:55:00
10:15 PM,73.0,69.8,90,30.10,10.0,Calm,Calm,-,N/A,,Clear,0,2013-08-22 03:15:00
10:35 PM,72.7,69.4,90,30.10,10.0,Calm,Calm,-,N/A,,Clear,0,2013-08-22 03:35:00
10:55 PM,72.0,69.1,91,30.10,10.0,Calm,Calm,-,N/A,,Clear,0,2013-08-22 03:55:00
11:15 PM,71.4,68.4,90,30.10,7.0,Calm,Calm,-,N/A,,Clear,0,2013-08-22 04:15:00
11:35 PM,71.4,68.5,91,30.10,10.0,Calm,Calm,-,N/A,,Clear,0,2013-08-22 04:35:00
11:55 PM,70.9,68.0,91,30.10,10.0,Calm,Calm,-,N/A,,Clear,0,2013-08-22 04:55:00